FLE38 LDDU-LYBE

Flight info

Callsign FLE38
Flight time N/A
Altitude 33000
Route MOKUN1W/11 MOKUN DCT ELGEB
Aircraft B38M/M-SDE1FGHILORVWXY/HB1

Departure

Time 2025-10-27 09:27
Airport Dubrovnik Ruđer Bošković Airport (LDDU)

Arrival

Time N/A
Airport Belgrade Nikola Tesla Airport (LYBE)
Time Latitude Longitude Altitude Speed Heading
2025-10-27 09:01 42.56073 18.26351 524 ft 0 kts 207°
2025-10-27 09:14 42.56079 18.26355 496 ft 2 kts 209°
2025-10-27 09:15 42.56095 18.26370 524 ft 3 kts 224°
2025-10-27 09:15 42.56107 18.26391 524 ft 3 kts 251°
2025-10-27 09:15 42.56109 18.26402 524 ft 3 kts 270°
2025-10-27 09:16 42.56105 18.26423 524 ft 0 kts 305°
2025-10-27 09:19 42.56116 18.26395 524 ft 10 kts 297°
2025-10-27 09:20 42.56167 18.26260 525 ft 21 kts 297°
2025-10-27 09:20 42.56243 18.26075 527 ft 24 kts 298°
2025-10-27 09:21 42.56306 18.25919 528 ft 0 kts 300°
2025-10-27 09:21 42.56308 18.25913 528 ft 2 kts 299°
2025-10-27 09:21 42.56322 18.25878 529 ft 7 kts 298°
2025-10-27 09:22 42.56425 18.25615 531 ft 29 kts 298°
2025-10-27 09:23 42.56536 18.25344 533 ft 36 kts 299°
2025-10-27 09:23 42.56595 18.25185 535 ft 39 kts 296°
2025-10-27 09:24 42.56809 18.24684 540 ft 34 kts 323°
2025-10-27 09:24 42.56943 18.24784 540 ft 29 kts 79°
2025-10-27 09:24 42.56920 18.24868 539 ft 15 kts 116°
2025-10-27 09:25 42.56912 18.24891 539 ft 4 kts 119°
2025-10-27 09:26 42.56884 18.24961 538 ft 29 kts 122°
2025-10-27 09:26 42.56332 18.26359 590 ft 180 kts 116°
2025-10-27 09:27 42.55735 18.27901 1934 ft 166 kts 119°
2025-10-27 09:27 42.55192 18.29294 3353 ft 179 kts 118°
2025-10-27 09:28 42.54516 18.30822 4497 ft 198 kts 133°
2025-10-27 09:28 42.53333 18.31840 5444 ft 209 kts 171°
2025-10-27 09:29 42.52606 18.31963 5954 ft 213 kts 186°
2025-10-27 09:29 42.51131 18.31618 6944 ft 227 kts 197°
2025-10-27 09:30 42.47780 18.30590 8938 ft 266 kts 198°
2025-10-27 09:30 42.46876 18.30307 9455 ft 274 kts 198°
2025-10-27 09:31 42.44971 18.29703 10485 ft 289 kts 198°
2025-10-27 09:31 42.43268 18.29231 11157 ft 310 kts 189°